COSMOS 2022 (GLONASS)

Satellite information

Favourite Embed

Satellite Type and Status

PAYLOADIN ORBIT

Key statistics

Satellite COSMOS 2022 (GLONASS) at a glance.

Uptime

13240

Days in orbit

Revolutions

≈ 2.1

Per day

Orbit

MEO

Medium Earth Orbit

Inclination

65.1

Latest

Satellite identification and parameters

Extended collection of information and parameters for COSMOS 2022 (GLONASS).

Object identification

Identified? True

Debris? False

Object name: COSMOS 2022 (GLONASS)

International designator: 1989-039A

Object number (NORAD): 20024

Object ID (CCSDS): 20024

Country: COMMONWEALTH OF INDEPENDENT STATES (CIS)

Current information (Y/N): Y

RCS size: LARGE

Orbital parameters

Period: 675.732 minutes

Inclination: 65.1097 deg

SMA: 25507.996 km

Apoapsis: 19154.245 km

Periapsis: 19105.477 km

RAAN: 320.9438 deg

Eccentricy: 0.00095594

Argument of periapsis: 212.7328 deg

Mean anomaly: 115.7006 deg

Mean motion: 2.13102357 rev/day

Mean motion (dot): -0.00000071 rev/day2

B* drag term: 0.0 1/REarth

Two-line elements (TLE)

Creation date: Aug. 28, 2025, 11:13 p.m.

Reference frame: TEME

Reference center: EARTH

Epoch: Aug. 28, 2025, 1:20 p.m. UTC

TLE line 0: 0 COSMOS 2022 (GLONASS)

TLE line 1: 1 20024U 89039A 25240.55584351 -.00000071 00000-0 00000-0 0 9995

TLE line 2: 2 20024 65.1097 320.9438 0009559 212.7328 115.7006 2.13102357282095

Live tracking on map

Real-time ground track for satellite COSMOS 2022 (GLONASS).

In-orbit conjunctions

A list of the most updated potential collisions computed for object COSMOS 2022 (GLONASS).

Target Orbit TCA Probability of collision Miss distance Type
CZ-3C DEB GTO 2024-08-29 00:08:44 TBA 4201.0 (m) DEBRIS
SL-12 R/B(2) MEO 2024-07-17 20:42:04 TBA 4947.0 (m) ROCKET BODY

Associated space launch

GLONASS navigation satellites

COSMOS 2022 (GLONASS) was lifted into orbit during the mission ‘Proton | Uragan 34 & 35’, on board a Proton space rocket.

The launch took place on May 31, 1989, 8:31 a.m. from 200/40.

For more information about the launch, click the button.

Launch to space Proton | Uragan 34 & 35
Proton | Uragan 34 & 35

Agency: N/A

Status: Launch Successful

Launch date: May 31, 1989, 8:31 a.m. UTC

Rocket: Proton

Launch pad: 200/40

Location: Baikonur Cosmodrome, Republic of Kazakhstan

...

Latest news about this satellite

There are no fresh news available about this satellite. Check back as we update our databases every day.


Newsletter sign-up

Weekly statistics, charts and insights to help you stay on top of the space industry.